Weather History for Marfa, TX

Change the Weather History Date:

Monday, February 18, 2013

  Actual Average Record
Temperature  
Mean Temperature 46 °F -  
Max Temperature 62 °F 59 °F 78 °F (2011)
Min Temperature 30 °F 29 °F 8 °F (1998)
Degree Days  
Heating Degree Days 19    
Moisture  
Dew Point 7 °F    
Average Humidity 20    
Maximum Humidity 40    
Minimum Humidity 11    
Precipitation  
Precipitation 0.00 in - - ()
Sea Level Pressure  
Sea Level Pressure 30.04 in    
Wind  
Wind Speed 12 mph (WNW)    
Max Wind Speed 31 mph    
Max Gust Speed 39 mph    
Visibility 10 miles    
Events      
Averages and records for this station are not official NWS values.
T = Trace of Precipitation, MM = Missing Value Source: NWS Daily Summary

Daily Weather History Graph

Daily Weather History Graph

Search for Another Location

Airport:

Trip Planner

Search our weather history database for the weather conditions in past years. The results will help you decide how hot, cold, wet, or windy it might be!

Date:

Astronomy

Feb. 18, 2013 Rise Set
Actual Time 7:33 AM CST 6:47 PM CST
Civil Twilight 7:08 AM CST 7:11 PM CST
Nautical Twilight 6:40 AM CST 7:39 PM CST
Astronomical Twilight 6:12 AM CST 8:07 PM CST
Moon 12:46 PM CST (2/18) 2:03 AM CST (2/18)
Length of Visible Light 12h 02m
Length of Day
11h 13m
First Quarter, 58% of the Moon is Illuminated
Feb 18
First Quarter
Feb 25
Full
Mar 4
Last Quarter
Mar 11
New
Mar 19
First Quarter

Hourly Weather History & Observations

Time (CST) Temp. Windchill Dew Point Humidity Pressure Visibility Wind Dir Wind Speed Gust Speed Precip Events Conditions
12:15 AM 32.0 °F - 8.6 °F 38% 29.94 in 10.0 mi Calm Calm - N/A   Clear
12:35 AM 30.2 °F 25.4 °F 8.6 °F 40% 29.95 in 10.0 mi West 4.6 mph - N/A   Clear
12:55 AM 30.2 °F 26.7 °F 8.6 °F 40% 29.95 in 10.0 mi West 3.5 mph - N/A   Clear
1:15 AM 32.0 °F 26.4 °F 8.6 °F 38% 29.94 in 10.0 mi SSW 5.8 mph - N/A   Clear
1:35 AM 41.0 °F - 12.2 °F 31% 29.94 in 10.0 mi Calm Calm - N/A   Clear
1:55 AM 33.8 °F 29.6 °F 8.6 °F 35% 29.94 in 10.0 mi West 4.6 mph - N/A   Clear
2:15 AM 46.4 °F 40.7 °F 15.8 °F 29% 29.94 in 10.0 mi WSW 12.7 mph - N/A   Clear
2:35 AM 46.4 °F 40.7 °F 12.2 °F 25% 29.93 in 10.0 mi WSW 12.7 mph - N/A   Clear
2:55 AM 46.4 °F 41.5 °F 14.0 °F 27% 29.93 in 10.0 mi WSW 10.4 mph - N/A   Clear
3:15 AM 42.8 °F 37.5 °F 12.2 °F 29% 29.93 in 10.0 mi West 9.2 mph - N/A   Clear
3:35 AM 39.2 °F 32.0 °F 12.2 °F 33% 29.93 in 10.0 mi West 11.5 mph - N/A   Clear
3:55 AM 42.8 °F 35.8 °F 12.2 °F 29% 29.93 in 10.0 mi West 13.8 mph - N/A   Clear
4:15 AM 46.4 °F 40.1 °F 12.2 °F 25% 29.93 in 10.0 mi WSW 15.0 mph - N/A   Clear
4:35 AM 46.4 °F 40.7 °F 12.2 °F 25% 29.94 in 10.0 mi WSW 12.7 mph - N/A   Clear
4:55 AM 42.8 °F 37.0 °F 10.4 °F 27% 29.94 in 10.0 mi WSW 10.4 mph - N/A   Clear
5:15 AM 44.6 °F 38.1 °F 10.4 °F 25% 29.94 in 10.0 mi West 13.8 mph - N/A   Clear
5:35 AM 46.4 °F 39.5 °F 12.2 °F 25% 29.95 in 10.0 mi West 17.3 mph - N/A   Clear
5:55 AM 48.2 °F - 10.4 °F 22% 29.96 in 10.0 mi West 17.3 mph - N/A   Clear
6:15 AM 48.2 °F - 10.4 °F 22% 29.97 in 10.0 mi West 16.1 mph - N/A   Clear
6:35 AM 48.2 °F - 10.4 °F 22% 29.98 in 10.0 mi West 15.0 mph - N/A   Clear
6:55 AM 48.2 °F - 10.4 °F 22% 29.99 in 10.0 mi West 16.1 mph - N/A   Clear
7:15 AM 46.4 °F 41.1 °F 10.4 °F 23% 30.01 in 10.0 mi West 11.5 mph - N/A   Clear
7:35 AM 42.8 °F 38.0 °F 8.6 °F 25% 30.01 in 10.0 mi West 8.1 mph - N/A   Clear
7:55 AM 46.4 °F 38.3 °F 8.6 °F 22% 30.01 in 10.0 mi WNW 23.0 mph 27.6 mph N/A   Clear
8:15 AM 48.2 °F - 8.6 °F 20% 30.03 in 10.0 mi West 21.9 mph 27.6 mph N/A   Clear
8:35 AM 50.0 °F - 8.6 °F 19% 30.03 in 10.0 mi West 19.6 mph 27.6 mph N/A   Clear
8:55 AM 51.8 °F - 10.4 °F 19% 30.04 in 10.0 mi West 21.9 mph - N/A   Clear
9:15 AM 53.6 °F - 10.4 °F 18% 30.04 in 10.0 mi West 23.0 mph - N/A   Clear
9:35 AM 53.6 °F - 10.4 °F 18% 30.05 in 10.0 mi West 25.3 mph 31.1 mph N/A   Clear
9:55 AM 53.6 °F - 10.4 °F 18% 30.06 in 10.0 mi West 28.8 mph 33.4 mph N/A   Clear
10:15 AM 55.4 °F - 10.4 °F 17% 30.07 in 10.0 mi West 31.1 mph 35.7 mph N/A   Clear
10:35 AM 57.2 °F - 10.4 °F 16% 30.07 in 10.0 mi West 28.8 mph 33.4 mph N/A   Clear
10:55 AM 57.2 °F - 10.4 °F 16% 30.08 in 10.0 mi West 26.5 mph 39.1 mph N/A   Clear
11:15 AM 57.2 °F - 10.4 °F 16% 30.09 in 10.0 mi West 28.8 mph 34.5 mph N/A   Clear
11:35 AM 59.0 °F - 10.4 °F 15% 30.09 in 10.0 mi West 26.5 mph 34.5 mph N/A   Clear
11:55 AM 59.0 °F - 8.6 °F 14% 30.10 in 10.0 mi West 31.1 mph 34.5 mph N/A   Clear
12:15 PM 60.8 °F - 8.6 °F 13% 30.11 in 10.0 mi West 24.2 mph 29.9 mph N/A   Clear
12:35 PM 60.8 °F - 8.6 °F 13% 30.11 in 10.0 mi WNW 19.6 mph 31.1 mph N/A   Clear
12:55 PM 60.8 °F - 8.6 °F 13% 30.11 in 10.0 mi West 21.9 mph 29.9 mph N/A   Clear
1:15 PM 60.8 °F - 8.6 °F 13% 30.11 in 10.0 mi WNW 21.9 mph 33.4 mph N/A   Clear
1:35 PM 60.8 °F - 6.8 °F 12% 30.09 in 10.0 mi West 24.2 mph 29.9 mph N/A   Clear
1:55 PM 62.6 °F - 8.6 °F 12% 30.08 in 10.0 mi West 23.0 mph 33.4 mph N/A   Clear
2:15 PM 62.6 °F - 8.6 °F 12% 30.08 in 10.0 mi WNW 19.6 mph 29.9 mph N/A   Clear
2:35 PM 62.6 °F - 8.6 °F 12% 30.07 in 10.0 mi WNW 20.7 mph 27.6 mph N/A   Clear
2:55 PM 62.6 °F - 8.6 °F 12% 30.06 in 10.0 mi West 19.6 mph 25.3 mph N/A   Clear
3:15 PM 62.6 °F - 8.6 °F 12% 30.07 in 10.0 mi WNW 17.3 mph 21.9 mph N/A   Clear
3:35 PM 62.6 °F - 6.8 °F 11% 30.07 in 10.0 mi WNW 16.1 mph 24.2 mph N/A   Clear
3:55 PM 62.6 °F - 8.6 °F 12% 30.06 in 10.0 mi WNW 18.4 mph 23.0 mph N/A   Clear
4:15 PM 62.6 °F - 8.6 °F 12% 30.06 in 10.0 mi West 20.7 mph 26.5 mph N/A   Clear
4:35 PM 62.6 °F - 6.8 °F 11% 30.07 in 10.0 mi West 16.1 mph 25.3 mph N/A   Clear
4:55 PM 62.6 °F - 6.8 °F 11% 30.08 in 10.0 mi West 13.8 mph - N/A   Clear
5:15 PM 60.8 °F - 6.8 °F 12% 30.08 in 10.0 mi West 12.7 mph 18.4 mph N/A   Clear
5:35 PM 62.6 °F - 6.8 °F 11% 30.07 in 10.0 mi WNW 15.0 mph - N/A   Clear
5:55 PM 60.8 °F - 6.8 °F 12% 30.08 in 10.0 mi WNW 11.5 mph - N/A   Clear
6:15 PM 59.0 °F - 3.2 °F 11% 30.08 in 10.0 mi WNW 11.5 mph - N/A   Clear
6:35 PM 57.2 °F - 3.2 °F 11% 30.09 in 10.0 mi WNW 8.1 mph - N/A   Clear
6:55 PM 51.8 °F - -0.4 °F 12% 30.09 in 10.0 mi West 8.1 mph - N/A   Clear
7:15 PM 46.4 °F 44.3 °F -2.2 °F 13% 30.09 in 10.0 mi NW 4.6 mph - N/A   Clear
7:35 PM 48.2 °F - -0.4 °F 13% 30.10 in 10.0 mi NNE 6.9 mph - N/A   Clear
7:55 PM 42.8 °F 38.0 °F -2.2 °F 15% 30.10 in 10.0 mi NNE 8.1 mph - N/A   Clear
8:15 PM 42.8 °F 38.6 °F -0.4 °F 16% 30.10 in 10.0 mi NNW 6.9 mph - N/A   Clear
8:35 PM 37.4 °F 34.9 °F -2.2 °F 19% 30.10 in 10.0 mi NNE 3.5 mph - N/A   Clear
8:55 PM 37.4 °F 30.8 °F 1.4 °F 22% 30.11 in 10.0 mi NNE 9.2 mph - N/A   Clear
9:15 PM 37.4 °F 30.8 °F -0.4 °F 20% 30.11 in 10.0 mi North 9.2 mph - N/A   Clear
9:35 PM 35.6 °F 32.8 °F -0.4 °F 22% 30.11 in 10.0 mi WNW 3.5 mph - N/A   Clear
9:55 PM 33.8 °F 29.6 °F -0.4 °F 23% 30.12 in 10.0 mi NW 4.6 mph - N/A   Clear
10:15 PM 33.8 °F 28.6 °F 1.4 °F 25% 30.13 in 10.0 mi NW 5.8 mph - N/A   Clear
10:35 PM 33.8 °F 25.8 °F 1.4 °F 25% 30.13 in 10.0 mi NNW 10.4 mph - N/A   Clear
10:55 PM 35.6 °F 31.7 °F 1.4 °F 24% 30.13 in 10.0 mi NNW 4.6 mph - N/A   Clear
11:15 PM 35.6 °F 30.7 °F 1.4 °F 24% 30.13 in 10.0 mi WNW 5.8 mph - N/A   Clear
11:35 PM 35.6 °F 28.0 °F 3.2 °F 26% 30.12 in 10.0 mi NNW 10.4 mph - N/A   Clear
11:55 PM 37.4 °F 30.3 °F 3.2 °F 24% 30.12 in 10.0 mi NNW 10.4 mph - N/A   Clear